[[{"header":{"parameterUnit":"m.s-1","parameterCategory":2,"la1":30.2991,"la2":30.254,"lo1":-89.0895,"lo2":-89.0444,"dy":0.0017,"dx":0.0017,"nx":28,"ny":28,"refTime":"2023-07-21T21:00:00:Z","depth":"0","parameterNumber":2,"parameterNumberName":"U-component_of_CURRENTS"},"data":[0,0,0,0,0,0,0,0,0,0,0,0,0,0,0,0,0,0,0,0,0,0,0,0,0,0,0,0,0,0,0,0,0,0,0,0,0,0,0,0,0,0,0,0,0,0,0,0,0,0,0,0,0,0,0,0,0,0,0.291,0.2909,0,0.2701,0.2698,0.2695,0.2557,0.2557,0.2557,0.2556,0.2482,0.248,0.2478,0,0,0,0,0,0,0,0,0,0,0,0,0,0.2669,0.2677,0.2911,0.2909,0.2907,0.2702,0.2698,0.2694,0.2557,0.2557,0.2556,0.2556,0.2483,0.248,0.2478,0,0,0,0,0,0,0,0,0,0,0,0,0,0.2642,0.2679,0.2911,0.282,0.281,0.2702,0.2698,0.2693,0.2557,0.2557,0.2556,0.2556,0.2483,0.2481,0.2478,0.2465,0,0,0.2469,0.2468,0,0,0,0,0,0,0,0,0.2644,0.265,0.2835,0.2826,0.2815,0.2662,0.2585,0.2627,0.2557,0.2644,0.2556,0.2556,0.2561,0.2551,0.2498,0.2462,0.2458,0.2469,0.2467,0.2466,0.2465,0,0,0,0,0,0,0,0.2647,0.2655,0.2819,0.2833,0.2821,0.2611,0.2611,0.2589,0.2602,0.2636,0.2628,0.2618,0.2555,0.2501,0.2496,0.2457,0.2469,0.2467,0.2465,0.2464,0.2427,0.2428,0,0,0,0,0,0,0.2719,0.2661,0.2826,0.2814,0.2737,0.2618,0.2617,0.2705,0.2599,0.2584,0.2619,0.2613,0.2506,0.25,0.2494,0.2455,0.2466,0.2464,0.2462,0.2427,0.2427,0.2428,0,0,0,0,0,0,0.2717,0.274,0.2835,0.2731,0.273,0.2628,0.2723,0.2701,0.2656,0.2586,0.2571,0.26,0.2506,0.2497,0.2456,0.2453,0.2462,0.246,0.2426,0.2427,0.2428,0.2392,0,0,0,0,0,0,0.2712,0.2743,0.2786,0.2741,0.2739,0.28,0.2723,0.2697,0.2654,0.2644,0.2565,0.2556,0.2505,0.2461,0.2454,0.2449,0.2458,0.2425,0.2426,0.2428,0.2393,0.2392,0.2391,0,0,0,0,0,0.2706,0.2796,0.2793,0.2808,0.2823,0.2803,0.2781,0.2694,0.2654,0.2648,0.2568,0.2559,0.2466,0.2458,0.245,0.2445,0.2424,0.2426,0.2427,0.2393,0.2392,0.2391,0,0,0,0,0,0,0.2688,0.279,0.2785,0.2896,0.2861,0.2783,0.2756,0.2709,0.2634,0.2616,0.2547,0.2533,0.2497,0.2491,0.2484,0.2445,0.2453,0.2453,0.243,0.2429,0.2429,0.2405,0.2455,0,0,0,0,0,0.272,0.281,0.2843,0.2897,0.2915,0.2836,0.2802,0.2758,0.27,0.2663,0.2592,0.2538,0.2496,0.2478,0.2439,0.2416,0.2424,0.2419,0.2419,0.2418,0.2398,0.2439,0.244,0.2433,0.2433,0.2433,0,0,0.27,0.2772,0.2807,0.2893,0.2857,0.2817,0.2814,0.2792,0.2715,0.2674,0.2547,0.253,0.2491,0.244,0.2429,0.2434,0.2421,0.242,0.2419,0.2398,0.2441,0.2441,0.2442,0.2434,0.2434,0.2434,0,0,0.2665,0.281,0.284,0.2849,0.2847,0.2808,0.282,0.2766,0.2725,0.2634,0.2581,0.2565,0.2476,0.2444,0.242,0.2411,0.2415,0.2417,0.2388,0.2429,0.2429,0.243,0.242,0.242,0.2419,0.2419,0.2419,0,0.261,0.27,0.2818,0.2825,0.2799,0.2812,0.2765,0.2727,0.2632,0.2609,0.26,0.2471,0.247,0.2402,0.2398,0.2406,0.2412,0.2385,0.2426,0.2427,0.2428,0.2419,0.2419,0.2417,0.2418,0.2418,0.2418,0,0.257,0.2626,0.265,0.267,0.2659,0.2647,0.2642,0.2601,0.256,0.2519,0.2466,0.2438,0.2374,0.2389,0.2381,0.2384,0.2378,0.2417,0.2421,0.2426,0.2416,0.2417,0.2415,0.2416,0.2416,0.2417,0,0,0.2473,0.2595,0.2591,0.2558,0.2597,0.2559,0.2509,0.2469,0.2408,0.2374,0.2302,0.2277,0.2307,0.2286,0.2297,0.2337,0.2369,0.2379,0.2382,0.2355,0.2417,0.2322,0.2314,0.2417,0.2418,0.2418,0.2399,0,0.2367,0.2373,0.2449,0.234,0.2336,0.2367,0.2299,0.2271,0.2265,0.2213,0.2264,0.2216,0.2257,0.2242,0.2287,0.2328,0.2373,0.2367,0.2428,0.2428,0.2333,0.2313,0.229,0.2264,0.24,0.2401,0.2401,0,0.2287,0.2304,0.226,0.2212,0.2207,0.2123,0.2051,0.2006,0.2028,0.204,0.2053,0.2094,0.2114,0.219,0.2243,0.2232,0.233,0.2383,0.2385,0.2304,0.2335,0.2287,0.226,0.2264,0.2402,0.2402,0.2402,0,0.2173,0.2144,0.2106,0.2101,0.2069,0.2006,0.1954,0.1954,0.1935,0.1964,0.1976,0.1985,0.2016,0.2095,0.2191,0.2236,0.2259,0.2347,0.2345,0.2338,0.2332,0.2322,0.2302,0.2444,0.2444,0.2444,0.2444,0,0.2092,0.2023,0.2039,0.202,0.1899,0.1903,0.1797,0.1786,0.1786,0.1775,0.1897,0.1904,0.2014,0.2048,0.214,0.218,0.2219,0.2311,0.2326,0.2315,0.2305,0.2318,0.2298,0.2443,0.2443,0.2443,0.2443,0,0.2007,0.204,0.1967,0.1911,0.1881,0.1799,0.1722,0.1667,0.1695,0.169,0.1711,0.184,0.1892,0.1943,0.2062,0.2114,0.2108,0.2201,0.2135,0.2142,0.2143,0.2121,0.1956,0.1891,0.2192,0.219,0.2188,0,0.1987,0.1959,0.1912,0.1883,0.1856,0.1751,0.1705,0.1652,0.1606,0.1652,0.1648,0.1733,0.1826,0.1892,0.1933,0.198,0.202,0.2029,0.2134,0.2097,0.2088,0.1998,0.1952,0.2116,0.2114,0.2112,0.211,0,0.1884,0.188,0.1836,0.1834,0.1767,0.1697,0.1602,0.153,0.1488,0.1504,0.1536,0.1634,0.1738,0.1793,0.1843,0.1915,0.1908,0.1989,0.2004,0.2038,0.1888,0.1849,0.2138,0.2092,0.2094,0.2095,0.2096,0.2097,0.1797,0.1741,0.1728,0.1711,0.1669,0.1611,0.1524,0.1444,0.1374,0.1332,0.1417,0.1533,0.1691,0.179,0.1785,0.1808,0.1792,0.1906,0.1885,0.1798,0.1712,0.19,0.1837,0.1837,0.1838,0.1838,0.1838,0,0.1653,0.161,0.1598,0.1554,0.1521,0.154,0.1431,0.1347,0.1248,0.1275,0.1289,0.1453,0.1582,0.1691,0.1772,0.1759,0.1697,0.1744,0.1685,0.1652,0.1904,0.1881,0.1758,0.1758,0.1758,0.1758,0.1758,0.1758,0.1546,0.1472,0.1481,0.1404,0.1401,0.1309,0.1246,0.118,0.1157,0.1164,0.1232,0.1332,0.1601,0.1682,0.1738,0.1718,0.1649,0.1528,0.149,0.178,0.1797,0.1813,0.1792,0.1651,0.1651,0.1233,0.123,0.1228]},{"header":{"parameterUnit":"m.s-1","parameterCategory":2,"la1":30.2991,"la2":30.254,"lo1":-89.0895,"lo2":-89.0444,"dy":0.0017,"dx":0.0017,"nx":28,"ny":28,"refTime":"2023-07-21T21:00:00:Z","depth":"0","parameterNumber":3,"parameterNumberName":"V-component_of_CURRENTS"},"data":[0,0,0,0,0,0,0,0,0,0,0,0,0,0,0,0,0,0,0,0,0,0,0,0,0,0,0,0,0,0,0,0,0,0,0,0,0,0,0,0,0,0,0,0,0,0,0,0,0,0,0,0,0,0,0,0,0,0,0.0467,0.0466,0,0.0447,0.0447,0.0447,0.0425,0.0425,0.0424,0.0424,0.0461,0.0462,0.0464,0,0,0,0,0,0,0,0,0,0,0,0,0,0.0358,0.0361,0.0467,0.0466,0.0466,0.0447,0.0447,0.0447,0.0425,0.0425,0.0424,0.0423,0.046,0.0462,0.0464,0,0,0,0,0,0,0,0,0,0,0,0,0,0.0382,0.0362,0.0467,0.045,0.0448,0.0447,0.0447,0.0447,0.0426,0.0425,0.0424,0.0423,0.0459,0.0462,0.0464,0.0497,0,0,0.0471,0.0472,0,0,0,0,0,0,0,0,0.0381,0.0386,0.0453,0.0451,0.0449,0.0435,0.0422,0.0465,0.0426,0.0438,0.0424,0.0422,0.0456,0.0458,0.0461,0.0499,0.05,0.0471,0.0473,0.0474,0.0474,0,0,0,0,0,0,0,0.0379,0.0386,0.0462,0.0453,0.045,0.0399,0.0403,0.0429,0.0456,0.0437,0.0434,0.0427,0.0455,0.0458,0.0461,0.0501,0.0471,0.0473,0.0475,0.0476,0.0552,0.0552,0,0,0,0,0,0,0.0384,0.0386,0.0463,0.0461,0.0408,0.0402,0.0407,0.0443,0.0454,0.0454,0.0428,0.0426,0.0455,0.0459,0.0463,0.0497,0.0474,0.0476,0.0477,0.0551,0.0552,0.0553,0,0,0,0,0,0,0.0382,0.0393,0.0464,0.0417,0.0422,0.0406,0.0446,0.0443,0.0447,0.0446,0.0447,0.0434,0.0454,0.0459,0.0493,0.0498,0.0477,0.0479,0.0551,0.0551,0.0552,0.0569,0,0,0,0,0,0,0.038,0.0393,0.0407,0.0419,0.0425,0.0458,0.0446,0.0443,0.0442,0.044,0.0452,0.0454,0.0454,0.0489,0.0495,0.0501,0.0481,0.055,0.0551,0.0552,0.0568,0.057,0.0573,0,0,0,0,0,0.0377,0.0405,0.041,0.0417,0.0452,0.0457,0.0456,0.0441,0.0443,0.0443,0.0462,0.0454,0.05,0.0493,0.0499,0.0506,0.0549,0.0551,0.0552,0.0567,0.057,0.0573,0,0,0,0,0,0,0.037,0.0406,0.0411,0.0451,0.0449,0.0452,0.0443,0.0449,0.0463,0.0465,0.0474,0.0478,0.0506,0.0509,0.0501,0.053,0.0519,0.0522,0.0528,0.0531,0.0533,0.0499,0.0483,0,0,0,0,0,0.0377,0.0409,0.0423,0.0454,0.045,0.0452,0.0449,0.0449,0.0463,0.0468,0.0477,0.0493,0.0518,0.0527,0.0543,0.057,0.0557,0.0574,0.0577,0.0579,0.0555,0.056,0.056,0.0557,0.0557,0.0557,0,0,0.038,0.0405,0.0421,0.0452,0.0449,0.0455,0.0449,0.0452,0.047,0.0473,0.0498,0.0507,0.0529,0.0552,0.0563,0.0554,0.0576,0.0581,0.0582,0.0557,0.0561,0.0561,0.0561,0.0558,0.0558,0.0558,0,0,0.0391,0.0427,0.0441,0.0446,0.0446,0.0454,0.046,0.0466,0.0476,0.0503,0.0513,0.0524,0.0557,0.0565,0.0579,0.0608,0.0593,0.0615,0.0597,0.0603,0.0603,0.0602,0.0595,0.0594,0.0612,0.0612,0.0612,0,0.0397,0.0425,0.044,0.0448,0.0457,0.046,0.0472,0.0487,0.0506,0.052,0.0509,0.0542,0.0559,0.0591,0.0591,0.0612,0.0606,0.0587,0.0605,0.0604,0.0604,0.0596,0.0595,0.0613,0.0613,0.0612,0.0612,0,0.0397,0.0424,0.0431,0.0457,0.047,0.048,0.0503,0.0523,0.0536,0.0536,0.0557,0.0565,0.0575,0.0587,0.0597,0.0605,0.0599,0.0612,0.0594,0.0605,0.0597,0.0595,0.0614,0.0614,0.0613,0.0613,0,0,0.0398,0.0432,0.0428,0.0448,0.0479,0.0494,0.0539,0.0567,0.058,0.058,0.0586,0.0611,0.0583,0.0594,0.0602,0.0594,0.059,0.0591,0.059,0.0576,0.0589,0.0564,0.0559,0.0608,0.0607,0.0607,0.0589,0,0.0389,0.0415,0.044,0.0471,0.0485,0.0529,0.0576,0.0607,0.0605,0.0604,0.0605,0.0609,0.0599,0.0597,0.0585,0.0597,0.0584,0.0593,0.0586,0.0585,0.0556,0.0556,0.0634,0.0621,0.0587,0.0586,0.0586,0,0.0371,0.0387,0.0422,0.0498,0.0509,0.0537,0.0596,0.0637,0.0649,0.0644,0.0619,0.0606,0.0603,0.0586,0.0579,0.0585,0.0575,0.057,0.057,0.0531,0.0555,0.0604,0.0619,0.0604,0.0583,0.0583,0.0583,0,0.035,0.0388,0.0425,0.0442,0.0514,0.0553,0.0601,0.0634,0.0666,0.0651,0.0644,0.062,0.0625,0.0599,0.0571,0.0586,0.0539,0.0576,0.0537,0.0536,0.0589,0.0592,0.0579,0.0551,0.0551,0.0551,0.0551,0,0.035,0.0366,0.0411,0.0425,0.0481,0.0538,0.0585,0.0628,0.0646,0.0656,0.0651,0.0658,0.0627,0.0597,0.0563,0.0527,0.0541,0.0516,0.0525,0.0598,0.0602,0.0579,0.056,0.0551,0.0551,0.0551,0.0551,0,0.0331,0.0361,0.0402,0.0459,0.048,0.0522,0.06,0.0616,0.065,0.0655,0.0661,0.0692,0.0682,0.0612,0.0577,0.054,0.0516,0.0475,0.0544,0.056,0.0532,0.0512,0.0471,0.0571,0.0459,0.0458,0.0457,0,0.0323,0.0338,0.0417,0.0452,0.0477,0.0529,0.0571,0.0615,0.0611,0.0685,0.0681,0.0699,0.0724,0.0655,0.0574,0.0491,0.0498,0.0502,0.0544,0.0517,0.0503,0.0492,0.0582,0.0633,0.0634,0.0635,0.0635,0,0.0284,0.0327,0.0372,0.0449,0.049,0.0546,0.0583,0.0575,0.0617,0.0636,0.0697,0.0751,0.0737,0.0721,0.0598,0.0569,0.0551,0.0513,0.049,0.062,0.0607,0.0714,0.0642,0.0641,0.0641,0.064,0.064,0.064,0.0269,0.0294,0.0371,0.0451,0.0495,0.0538,0.0571,0.0585,0.0606,0.0647,0.0691,0.0806,0.0848,0.0741,0.0649,0.0568,0.0589,0.0593,0.0566,0.0553,0.0655,0.0565,0.0568,0.0567,0.0566,0.0565,0.0564,0,0.0258,0.0294,0.0361,0.045,0.0487,0.0529,0.0563,0.0581,0.0583,0.0684,0.0741,0.0912,0.0865,0.0831,0.0707,0.0641,0.0692,0.0613,0.065,0.0745,0.0676,0.069,0.0716,0.0716,0.0716,0.0716,0.0716,0.0716,0.0256,0.0304,0.0338,0.0398,0.0455,0.049,0.0506,0.0552,0.0629,0.0788,0.0952,0.1118,0.1295,0.0835,0.0685,0.0667,0.0716,0.0637,0.0669,0.062,0.0617,0.0615,0.0625,0.0636,0.0636,0.0843,0.0843,0.0844]}],[{"header":{"parameterUnit":"m.s-1","parameterCategory":2,"la1":30.2991,"la2":30.254,"lo1":-89.0895,"lo2":-89.0444,"dy":0.0017,"dx":0.0017,"nx":28,"ny":28,"refTime":"2023-07-21T21:00:00:Z","depth":"2","parameterNumber":2,"parameterNumberName":"U-component_of_CURRENTS"},"data":[0,0,0,0,0,0,0,0,0,0,0,0,0,0,0,0,0,0,0,0,0,0,0,0,0,0,0,0,0,0,0,0,0,0,0,0,0,0,0,0,0,0,0,0,0,0,0,0,0,0,0,0,0,0,0,0,0,0,0.1176,0.1179,0,0.1484,0.1488,0.1491,0.1713,0.1715,0.1716,0.1718,0.1878,0.188,0.1883,0,0,0,0,0,0,0,0,0,0,0,0,0,0.1179,0.1176,0.1175,0.1179,0.1183,0.1484,0.1488,0.1492,0.1713,0.1715,0.1717,0.1719,0.1877,0.188,0.1883,0,0,0,0,0,0,0,0,0,0,0,0,0,0.1301,0.1174,0.1175,0.1329,0.1346,0.1483,0.1488,0.1494,0.1712,0.1715,0.1718,0.172,0.1876,0.188,0.1883,0.1854,0,0,0.1895,0.1897,0,0,0,0,0,0,0,0,0.1293,0.13,0.1303,0.1319,0.1338,0.1563,0.1549,0.1607,0.1711,0.1573,0.1718,0.1721,0.1756,0.177,0.1825,0.1861,0.1868,0.1896,0.1898,0.19,0.1901,0,0,0,0,0,0,0,0.1284,0.1291,0.1298,0.1306,0.1328,0.1521,0.1537,0.1563,0.1643,0.1586,0.1602,0.1635,0.1765,0.1821,0.183,0.1871,0.1896,0.1899,0.1901,0.1903,0.199,0.199,0,0,0,0,0,0,0.122,0.1279,0.1288,0.1307,0.1321,0.1517,0.1536,0.1488,0.1647,0.1675,0.1633,0.1645,0.1813,0.1825,0.1836,0.1824,0.19,0.1903,0.1906,0.199,0.199,0.199,0,0,0,0,0,0,0.1217,0.1214,0.1276,0.1307,0.1328,0.1511,0.1458,0.1493,0.1565,0.1684,0.171,0.1671,0.1815,0.183,0.18,0.1831,0.1905,0.1909,0.199,0.199,0.199,0.179,0,0,0,0,0,0,0.1214,0.1209,0.1165,0.1298,0.1324,0.1376,0.1457,0.1497,0.158,0.1598,0.1723,0.1742,0.1819,0.1793,0.1804,0.1838,0.1912,0.199,0.199,0.199,0.1797,0.1783,0.1772,0,0,0,0,0,0.1212,0.1146,0.1158,0.1162,0.1248,0.1377,0.1409,0.1553,0.1578,0.1622,0.1632,0.1739,0.1807,0.1791,0.1805,0.1842,0.199,0.199,0.199,0.1802,0.1786,0.1772,0,0,0,0,0,0,0.1139,0.1165,0.1182,0.1127,0.1248,0.1415,0.1438,0.1536,0.1588,0.1548,0.167,0.1687,0.1703,0.1777,0.1759,0.1877,0.1945,0.1947,0.1798,0.1783,0.1771,0.1932,0.1915,0,0,0,0,0,0.1086,0.1064,0.1135,0.1128,0.1118,0.1266,0.1331,0.1415,0.1482,0.1514,0.1646,0.1708,0.1716,0.1741,0.1805,0.1807,0.1824,0.1868,0.1855,0.1843,0.1988,0.1914,0.1906,0.199,0.199,0.199,0,0,0.1118,0.109,0.1115,0.1117,0.1175,0.1213,0.1311,0.1364,0.1445,0.1505,0.1633,0.166,0.1703,0.1729,0.1752,0.1788,0.1793,0.1843,0.1832,0.1988,0.1913,0.1905,0.1897,0.199,0.199,0.199,0,0,0.1087,0.1048,0.0979,0.1084,0.1117,0.1166,0.117,0.1321,0.1402,0.149,0.1525,0.1585,0.1681,0.1741,0.1752,0.1715,0.1722,0.1714,0.1782,0.1699,0.1692,0.1686,0.1527,0.1509,0.1712,0.1711,0.1711,0,0.1117,0.1013,0.1016,0.1005,0.1103,0.1128,0.1154,0.122,0.1402,0.1444,0.1521,0.1672,0.1734,0.1708,0.1738,0.1704,0.1597,0.1801,0.1677,0.1674,0.1672,0.1512,0.1495,0.1702,0.1703,0.1704,0.1705,0,0.1011,0.1029,0.1003,0.0973,0.1064,0.1105,0.1177,0.1249,0.1331,0.1441,0.1525,0.1618,0.1721,0.1739,0.1745,0.1748,0.1643,0.164,0.1699,0.165,0.1484,0.1469,0.1688,0.1691,0.1694,0.1697,0,0,0.0915,0.0914,0.0954,0.1001,0.1067,0.1144,0.117,0.1221,0.1238,0.1439,0.1517,0.1647,0.1707,0.174,0.1735,0.1765,0.1618,0.1713,0.1712,0.1531,0.1317,0.1443,0.1438,0.1507,0.1508,0.1508,0.1141,0,0.0854,0.0862,0.0868,0.1003,0.1027,0.1126,0.1196,0.1277,0.1321,0.1397,0.1476,0.1546,0.1664,0.1679,0.1705,0.1674,0.1601,0.1717,0.1429,0.1424,0.1521,0.144,0.1287,0.0971,0.1128,0.1126,0.1124,0,0.074,0.0789,0.0891,0.1046,0.1051,0.114,0.1236,0.1304,0.1322,0.1363,0.1411,0.1435,0.1515,0.1608,0.1562,0.1581,0.1475,0.1466,0.1445,0.1692,0.1536,0.1087,0.094,0.1102,0.1104,0.1105,0.1107,0,0.072,0.0817,0.0909,0.1021,0.1163,0.123,0.1261,0.1326,0.13,0.133,0.1292,0.1347,0.1395,0.1339,0.1433,0.1394,0.137,0.1246,0.1229,0.1225,0.1147,0.1144,0.1167,0.1168,0.1169,0.117,0.1171,0,0.0659,0.0794,0.0937,0.1064,0.1163,0.1282,0.1297,0.1345,0.1284,0.1258,0.1271,0.1215,0.1348,0.1344,0.1329,0.1322,0.1235,0.13,0.1191,0.1059,0.1053,0.1279,0.1297,0.1156,0.1159,0.1162,0.1164,0,0.0693,0.0771,0.095,0.1136,0.1178,0.1303,0.1265,0.1247,0.1216,0.1162,0.1157,0.1087,0.1112,0.1218,0.1191,0.122,0.1189,0.117,0.1029,0.0923,0.1048,0.106,0.0967,0.0969,0.0972,0.0973,0.0975,0,0.0694,0.0833,0.1057,0.1113,0.1203,0.1297,0.1321,0.1269,0.1215,0.1081,0.1049,0.1012,0.0941,0.0951,0.1069,0.1029,0.1138,0.0939,0.0952,0.1151,0.105,0.1058,0.1067,0.061,0.0609,0.0607,0.0606,0,0.0809,0.0944,0.0999,0.1145,0.1219,0.1231,0.1245,0.1176,0.1159,0.1083,0.0999,0.0881,0.0832,0.0791,0.0867,0.0812,0.097,0.0913,0.1094,0.0805,0.082,0.0721,0.0738,0.0595,0.0596,0.0597,0.0597,0.0598,0.0846,0.0944,0.1025,0.1142,0.1192,0.1213,0.1163,0.1115,0.1037,0.094,0.0966,0.0804,0.0717,0.0674,0.0686,0.0778,0.0768,0.0769,0.0767,0.0767,0.0914,0.0947,0.076,0.0762,0.0763,0.0765,0.0766,0,0.0889,0.0969,0.1034,0.1111,0.111,0.1165,0.1142,0.1045,0.1007,0.0935,0.0888,0.0724,0.0558,0.0502,0.0559,0.0597,0.0498,0.0629,0.0482,0.0492,0.0501,0.0633,0.0403,0.0403,0.0403,0.0403,0,0,0.0899,0.0889,0.0963,0.1021,0.1076,0.106,0.1042,0.0897,0.0809,0.0673,0.0602,0.0564,0.0463,0.0483,0.0451,0.0459,0.0473,0.0424,0.0693,0.0526,0.0536,0.054,0.0752,0,0,0,0,0]},{"header":{"parameterUnit":"m.s-1","parameterCategory":2,"la1":30.2991,"la2":30.254,"lo1":-89.0895,"lo2":-89.0444,"dy":0.0017,"dx":0.0017,"nx":28,"ny":28,"refTime":"2023-07-21T21:00:00:Z","depth":"2","parameterNumber":3,"parameterNumberName":"V-component_of_CURRENTS"},"data":[0,0,0,0,0,0,0,0,0,0,0,0,0,0,0,0,0,0,0,0,0,0,0,0,0,0,0,0,0,0,0,0,0,0,0,0,0,0,0,0,0,0,0,0,0,0,0,0,0,0,0,0,0,0,0,0,0,0,-0.0321,-0.0321,0,-0.014,-0.0136,-0.0132,0.0015,0.0014,0.0013,0.0013,0.0112,0.0115,0.0118,0,0,0,0,0,0,0,0,0,0,0,0,0,-0.0299,-0.0299,-0.0321,-0.0321,-0.0321,-0.0141,-0.0136,-0.0131,0.0015,0.0014,0.0013,0.0012,0.0111,0.0115,0.0119,0,0,0,0,0,0,0,0,0,0,0,0,0,-0.021,-0.03,-0.0321,-0.0245,-0.0238,-0.0142,-0.0136,-0.013,0.0015,0.0014,0.0013,0.0012,0.0109,0.0114,0.0119,0.0172,0,0,0.0134,0.0137,0,0,0,0,0,0,0,0,-0.0215,-0.0207,-0.0256,-0.025,-0.0243,-0.0108,-0.0093,-0.0041,0.0015,-0.0055,0.0013,0.0011,0.0015,0.0028,0.0101,0.0177,0.0181,0.0135,0.0138,0.014,0.0142,0,0,0,0,0,0,0,-0.0222,-0.0213,-0.0224,-0.0257,-0.0248,-0.0138,-0.0126,-0.0078,0.0002,-0.0049,-0.0044,-0.0062,0.0022,0.0096,0.0103,0.0183,0.0135,0.0139,0.0142,0.0144,0.0277,0.0277,0,0,0,0,0,0,-0.0305,-0.0221,-0.0231,-0.0222,-0.0259,-0.0141,-0.0126,-0.013,0.0003,0.0016,-0.0062,-0.0057,0.0088,0.0098,0.0107,0.0128,0.014,0.0145,0.0148,0.0276,0.0277,0.0278,0,0,0,0,0,0,-0.0305,-0.0307,-0.0239,-0.0237,-0.0224,-0.0144,-0.0147,-0.0126,-0.0046,-0.001,0.0006,-0.0007,0.0088,0.01,0.0136,0.0133,0.0147,0.0152,0.0276,0.0277,0.0277,0.0199,0,0,0,0,0,0,-0.0304,-0.0307,-0.0311,-0.0243,-0.0228,-0.018,-0.0148,-0.0123,-0.0069,-0.0059,0.0041,0.005,0.0088,0.0128,0.0141,0.014,0.0155,0.0275,0.0276,0.0277,0.0201,0.0197,0.0194,0,0,0,0,0,-0.0303,-0.0325,-0.0311,-0.0313,-0.0245,-0.0182,-0.0159,-0.0089,-0.0066,-0.0019,0.0023,0.0047,0.0143,0.0132,0.0147,0.0148,0.0275,0.0276,0.0277,0.0202,0.0198,0.0194,0,0,0,0,0,0,-0.0301,-0.0313,-0.0296,-0.0314,-0.0256,-0.0167,-0.0146,-0.0085,0.0001,-0.0016,0.0055,0.0067,0.0107,0.014,0.0126,0.0192,0.0214,0.0218,0.0152,0.0148,0.0145,0.0208,0.016,0,0,0,0,0,-0.0316,-0.0329,-0.0304,-0.0302,-0.0302,-0.0213,-0.0175,-0.0135,-0.0076,-0.0034,0.0037,0.0087,0.013,0.0143,0.02,0.0227,0.0242,0.024,0.0236,0.0232,0.0296,0.0257,0.0255,0.0282,0.0282,0.0282,0,0,-0.0303,-0.0323,-0.0319,-0.0302,-0.0261,-0.0214,-0.0185,-0.0157,-0.0088,-0.0048,0.0063,0.0086,0.0139,0.0177,0.0195,0.0194,0.0227,0.0234,0.023,0.0297,0.0258,0.0255,0.0253,0.0282,0.0282,0.0282,0,0,-0.031,-0.0322,-0.0339,-0.0293,-0.0283,-0.023,-0.0227,-0.0145,-0.0089,-0.0001,0.0028,0.0063,0.0156,0.019,0.0215,0.0232,0.0219,0.0218,0.0237,0.0195,0.0192,0.019,0.017,0.0167,0.0199,0.0199,0.0199,0,-0.0273,-0.0302,-0.0319,-0.0309,-0.0261,-0.0239,-0.019,-0.013,-0.0028,0.0001,0.002,0.015,0.0188,0.0222,0.0229,0.023,0.0191,0.0235,0.0187,0.0185,0.0185,0.0165,0.0163,0.0196,0.0196,0.0196,0.0197,0,-0.0297,-0.0278,-0.0287,-0.0257,-0.0206,-0.0168,-0.0122,-0.0055,0.0001,0.0044,0.0107,0.0163,0.023,0.023,0.0248,0.0247,0.0215,0.0187,0.0188,0.0177,0.0157,0.0156,0.019,0.0192,0.0193,0.0194,0,0,-0.0291,-0.0289,-0.0289,-0.0226,-0.017,-0.0118,-0.0045,0.0028,0.0073,0.0137,0.0184,0.0275,0.0252,0.0286,0.0273,0.0262,0.0213,0.0214,0.0213,0.0181,0.0103,0.0151,0.0154,0.0123,0.0123,0.0123,0.0078,0,-0.0269,-0.0242,-0.0243,-0.0125,-0.0076,-0.0006,0.0094,0.0148,0.0175,0.0206,0.0202,0.0246,0.0271,0.0277,0.0256,0.0242,0.0211,0.023,0.0138,0.0139,0.0168,0.0157,0.0123,0.0086,0.0077,0.0077,0.0077,0,-0.0293,-0.0257,-0.0169,-0.0019,0.0008,0.0096,0.0232,0.0312,0.0308,0.031,0.0285,0.0252,0.0264,0.0259,0.0247,0.023,0.018,0.0168,0.0163,0.0258,0.0187,0.0107,0.0085,0.0075,0.0075,0.0075,0.0075,0,-0.0285,-0.0191,-0.0107,-0.005,0.0103,0.0189,0.0281,0.034,0.0371,0.034,0.0311,0.0286,0.0293,0.0234,0.0234,0.0202,0.0191,0.0127,0.013,0.0131,0.0131,0.0133,0.01,0.01,0.01,0.01,0.01,0,-0.0259,-0.0199,-0.0084,-0.0017,0.0137,0.023,0.034,0.0417,0.0411,0.0409,0.0345,0.0327,0.0285,0.0252,0.0206,0.02,0.0163,0.0176,0.0134,0.0101,0.0102,0.0129,0.0133,0.0098,0.0099,0.0099,0.0099,0,-0.0284,-0.0232,-0.0089,0.0091,0.0147,0.0267,0.0375,0.0418,0.0441,0.0418,0.0403,0.035,0.0347,0.0303,0.0249,0.0217,0.018,0.0169,0.0163,0.0124,0.014,0.014,0.0153,0.0154,0.0156,0.0157,0.0158,0,-0.0302,-0.0216,-0.001,0.007,0.0151,0.0288,0.0369,0.0431,0.0432,0.0446,0.0416,0.0405,0.0378,0.0335,0.0293,0.0234,0.0207,0.0174,0.015,0.0194,0.015,0.0149,0.0148,0.0085,0.0086,0.0086,0.0086,0,-0.025,-0.0165,-0.0086,0.0091,0.0201,0.0293,0.0388,0.0393,0.0457,0.0438,0.0455,0.0445,0.0419,0.0359,0.0307,0.0258,0.0188,0.0179,0.0196,0.0103,0.0133,0.009,0.009,0.0088,0.0088,0.0088,0.0087,0.0087,-0.0235,-0.0142,-0.0011,0.0132,0.0226,0.0312,0.0367,0.0398,0.0424,0.0445,0.0461,0.0465,0.0383,0.0316,0.0261,0.0232,0.0222,0.0165,0.0161,0.0158,0.0185,0.0219,0.0194,0.0195,0.0195,0.0195,0.0196,0,-0.0159,-0.0064,0.0047,0.0195,0.0242,0.0311,0.039,0.0402,0.0435,0.0469,0.0487,0.0389,0.033,0.0279,0.0233,0.0193,0.017,0.0174,0.0115,0.0113,0.0111,0.0134,0.013,0.013,0.013,0.013,0,0,-0.0108,-0.0018,0.0043,0.0166,0.0252,0.0329,0.0369,0.0368,0.0397,0.0412,0.0432,0.043,0.0355,0.0277,0.019,0.0177,0.017,0.0182,0.0232,0.0169,0.0169,0.0097,0.013,0,0,0,0,0]}],[{"header":{"parameterUnit":"m.s-1","parameterCategory":2,"la1":30.2991,"la2":30.254,"lo1":-89.0895,"lo2":-89.0444,"dy":0.0017,"dx":0.0017,"nx":28,"ny":28,"refTime":"2023-07-21T21:00:00:Z","depth":"4","parameterNumber":2,"parameterNumberName":"U-component_of_CURRENTS"},"data":[0,0,0,0,0,0,0,0,0,0,0,0,0,0,0,0,0,0,0,0,0,0,0,0,0,0,0,0,0,0,0,0,0,0,0,0,0,0,0,0,0,0,0,0,0,0,0,0,0,0,0,0,0,0,0,0,0,0,-0.0672,-0.0672,0,-0.0738,-0.0739,-0.074,-0.08,-0.08,-0.08,-0.0801,-0.0913,-0.0916,-0.0918,0,0,0,0,0,0,0,0,0,0,0,0,0,-0.0653,-0.0653,-0.0672,-0.0672,-0.0672,-0.0738,-0.0739,-0.0741,-0.08,-0.08,-0.08,-0.0801,-0.0912,-0.0915,-0.0919,0,0,0,0,0,0,0,0,0,0,0,0,0,-0.0689,-0.0653,-0.0672,-0.0706,-0.0709,-0.0737,-0.0739,-0.0741,-0.08,-0.08,-0.0801,-0.0801,-0.0911,-0.0915,-0.0919,-0.0938,0,0,-0.0932,-0.0933,0,0,0,0,0,0,0,0,-0.0687,-0.0691,-0.0701,-0.0704,-0.0707,-0.0756,-0.0774,-0.0807,-0.08,-0.0771,-0.0801,-0.0801,-0.0861,-0.0869,-0.0888,-0.0943,-0.0948,-0.0932,-0.0935,-0.0936,-0.0938,0,0,0,0,0,0,0,-0.0685,-0.0688,-0.0703,-0.0701,-0.0705,-0.0737,-0.0743,-0.0781,-0.0818,-0.0774,-0.0777,-0.0776,-0.0864,-0.0884,-0.0891,-0.095,-0.0932,-0.0936,-0.0938,-0.094,-0.1158,-0.1162,0,0,0,0,0,0,-0.0662,-0.0686,-0.0701,-0.0705,-0.0692,-0.0736,-0.0743,-0.0745,-0.0817,-0.0826,-0.0775,-0.0778,-0.0876,-0.0886,-0.0895,-0.1043,-0.0936,-0.094,-0.0943,-0.1155,-0.1159,-0.1163,0,0,0,0,0,0,-0.0662,-0.0663,-0.0698,-0.0693,-0.0699,-0.0735,-0.0737,-0.0746,-0.0785,-0.0817,-0.0828,-0.0807,-0.0877,-0.0889,-0.0928,-0.1043,-0.0942,-0.0946,-0.1151,-0.1156,-0.1161,-0.1261,0,0,0,0,0,0,-0.0661,-0.0663,-0.0682,-0.0691,-0.0698,-0.0735,-0.0737,-0.0747,-0.0779,-0.0785,-0.0847,-0.0857,-0.0878,-0.0921,-0.0932,-0.1047,-0.0949,-0.1147,-0.1154,-0.1159,-0.1253,-0.1268,-0.1281,0,0,0,0,0,-0.066,-0.0677,-0.0683,-0.0686,-0.0715,-0.0736,-0.0745,-0.0775,-0.0781,-0.081,-0.083,-0.0856,-0.0972,-0.0925,-0.0937,-0.1057,-0.1144,-0.1152,-0.1159,-0.1247,-0.1265,-0.1281,0,0,0,0,0,0,-0.0687,-0.0684,-0.0691,-0.0709,-0.073,-0.0745,-0.0772,-0.0785,-0.0826,-0.0835,-0.086,-0.0871,-0.0973,-0.0978,-0.0927,-0.114,-0.1079,-0.1089,-0.1143,-0.116,-0.1174,-0.116,-0.0953,0,0,0,0,0,-0.0696,-0.0702,-0.0712,-0.0728,-0.0737,-0.0758,-0.0777,-0.0797,-0.0818,-0.0838,-0.087,-0.0927,-0.1013,-0.1047,-0.1109,-0.1186,-0.1161,-0.1284,-0.1298,-0.131,-0.1309,-0.1349,-0.1366,-0.1187,-0.1187,-0.1187,0,0,-0.0708,-0.0707,-0.0713,-0.0733,-0.0749,-0.0777,-0.0773,-0.0806,-0.0833,-0.0843,-0.0896,-0.0972,-0.1042,-0.1153,-0.1203,-0.1169,-0.1345,-0.1319,-0.1329,-0.1321,-0.1359,-0.1376,-0.1391,-0.1192,-0.1191,-0.1191,0,0,-0.0728,-0.0736,-0.0753,-0.0772,-0.0798,-0.0807,-0.0818,-0.0846,-0.0869,-0.0916,-0.0968,-0.1082,-0.116,-0.1258,-0.1314,-0.1433,-0.1421,-0.1489,-0.1549,-0.159,-0.1604,-0.1616,-0.1584,-0.1592,-0.1493,-0.1493,-0.1493,0,-0.0746,-0.0767,-0.0765,-0.0792,-0.0811,-0.082,-0.0854,-0.0875,-0.0914,-0.094,-0.0942,-0.1171,-0.1218,-0.1412,-0.1459,-0.1473,-0.1455,-0.1478,-0.1605,-0.1617,-0.1628,-0.1592,-0.16,-0.1499,-0.1498,-0.1498,-0.1497,0,-0.0778,-0.0809,-0.0819,-0.0848,-0.0872,-0.0902,-0.0918,-0.0953,-0.0978,-0.1005,-0.1179,-0.1286,-0.1436,-0.1502,-0.1506,-0.1673,-0.162,-0.1618,-0.1553,-0.1651,-0.1608,-0.1614,-0.1507,-0.1505,-0.1503,-0.1502,0,0,-0.076,-0.0831,-0.0832,-0.0863,-0.0907,-0.092,-0.0969,-0.1016,-0.1065,-0.1161,-0.1267,-0.1465,-0.1561,-0.1633,-0.1738,-0.1773,-0.1824,-0.1724,-0.1723,-0.1674,-0.1859,-0.1617,-0.1599,-0.1842,-0.1844,-0.1846,-0.1787,0,-0.0785,-0.0837,-0.0874,-0.093,-0.0955,-0.0995,-0.1045,-0.1091,-0.1138,-0.1229,-0.1391,-0.1558,-0.1605,-0.1752,-0.1798,-0.1838,-0.185,-0.1836,-0.1786,-0.1783,-0.1543,-0.1603,-0.1854,-0.1792,-0.1793,-0.1794,-0.1795,0,-0.0788,-0.0824,-0.0888,-0.0971,-0.0991,-0.1041,-0.112,-0.1176,-0.1287,-0.1362,-0.1558,-0.1662,-0.1855,-0.1849,-0.1961,-0.195,-0.1905,-0.1891,-0.1888,-0.1629,-0.1554,-0.1682,-0.1806,-0.1805,-0.1804,-0.1804,-0.1803,0,-0.0743,-0.0821,-0.087,-0.0897,-0.1002,-0.1056,-0.1122,-0.1216,-0.1279,-0.1486,-0.1585,-0.18,-0.1944,-0.1976,-0.1972,-0.1976,-0.198,-0.1985,-0.1721,-0.1701,-0.1891,-0.1879,-0.1999,-0.1999,-0.1999,-0.1999,-0.2,0,-0.0723,-0.0765,-0.0858,-0.0899,-0.0969,-0.1051,-0.1147,-0.1262,-0.1416,-0.1468,-0.1698,-0.1744,-0.1971,-0.1994,-0.1975,-0.1852,-0.1999,-0.1721,-0.1679,-0.1931,-0.1925,-0.1893,-0.1881,-0.1997,-0.1998,-0.1998,-0.1998,0,-0.066,-0.0727,-0.0796,-0.0919,-0.0962,-0.1011,-0.1162,-0.1225,-0.1417,-0.1509,-0.1607,-0.173,-0.1708,-0.1859,-0.1857,-0.1825,-0.1761,-0.1665,-0.1886,-0.186,-0.1446,-0.1441,-0.1379,-0.137,-0.1362,-0.1356,-0.1351,0,-0.0645,-0.0682,-0.0799,-0.0822,-0.0887,-0.0968,-0.1035,-0.123,-0.1268,-0.1384,-0.1392,-0.1451,-0.1494,-0.1356,-0.1452,-0.1474,-0.1443,-0.1481,-0.1504,-0.142,-0.1388,-0.1395,-0.14,-0.1339,-0.1337,-0.1335,-0.1333,0,-0.0634,-0.0679,-0.0701,-0.0768,-0.0832,-0.0869,-0.0955,-0.0988,-0.1142,-0.1315,-0.118,-0.1176,-0.1092,-0.1086,-0.1172,-0.1145,-0.1529,-0.1402,-0.1418,-0.1439,-0.1371,-0.1348,-0.1362,-0.1307,-0.1311,-0.1313,-0.1315,0,-0.0599,-0.0596,-0.0647,-0.0679,-0.0727,-0.0737,-0.0804,-0.08,-0.0877,-0.1037,-0.0867,-0.0899,-0.0942,-0.0886,-0.0877,-0.0947,-0.092,-0.0992,-0.1029,-0.1059,-0.0989,-0.0858,-0.0589,0,0,0,0,0,-0.0561,-0.0552,-0.0578,-0.0567,-0.0589,-0.0639,-0.0726,-0.078,-0.0891,-0.0784,-0.0864,-0.075,-0.0704,-0.0631,-0.0636,-0.0707,-0.095,-0.0711,-0.1059,-0.1163,-0.1193,-0.1145,0,0,0,0,0,0,-0.0535,-0.0529,-0.0546,-0.0471,-0.0433,-0.0459,-0.0515,-0.0589,-0.0518,-0.0625,-0.0568,-0.068,-0.0615,-0.0676,-0.0592,-0.0608,-0.0815,-0.0737,-0.0735,-0.1146,-0.1173,-0.1198,-0.1158,0,0,0,0,0]},{"header":{"parameterUnit":"m.s-1","parameterCategory":2,"la1":30.2991,"la2":30.254,"lo1":-89.0895,"lo2":-89.0444,"dy":0.0017,"dx":0.0017,"nx":28,"ny":28,"refTime":"2023-07-21T21:00:00:Z","depth":"4","parameterNumber":3,"parameterNumberName":"V-component_of_CURRENTS"},"data":[0,0,0,0,0,0,0,0,0,0,0,0,0,0,0,0,0,0,0,0,0,0,0,0,0,0,0,0,0,0,0,0,0,0,0,0,0,0,0,0,0,0,0,0,0,0,0,0,0,0,0,0,0,0,0,0,0,0,0.0046,0.0046,0,0.0057,0.0058,0.0059,0.0103,0.0103,0.0104,0.0104,0.0197,0.0199,0.0201,0,0,0,0,0,0,0,0,0,0,0,0,0,0.0074,0.0074,0.0046,0.0046,0.0045,0.0057,0.0058,0.0059,0.0103,0.0103,0.0104,0.0104,0.0196,0.0199,0.0201,0,0,0,0,0,0,0,0,0,0,0,0,0,0.0077,0.0074,0.0046,0.0064,0.0065,0.0057,0.0058,0.0059,0.0103,0.0103,0.0104,0.0105,0.0196,0.0199,0.0202,0.0208,0,0,0.0211,0.0212,0,0,0,0,0,0,0,0,0.0077,0.0077,0.0062,0.0063,0.0064,0.0074,0.0102,0.0111,0.0103,0.0095,0.0104,0.0105,0.0159,0.0165,0.0174,0.0212,0.0216,0.0211,0.0213,0.0215,0.0215,0,0,0,0,0,0,0,0.0077,0.0077,0.0057,0.0061,0.0063,0.0075,0.0077,0.0104,0.013,0.0096,0.0098,0.0089,0.0161,0.017,0.0176,0.0217,0.0211,0.0214,0.0216,0.0217,0.0286,0.0286,0,0,0,0,0,0,0.0061,0.0077,0.0057,0.0057,0.0065,0.0073,0.0076,0.0075,0.0128,0.0134,0.0088,0.009,0.0165,0.0172,0.018,0.0209,0.0215,0.0218,0.0219,0.0286,0.0286,0.0286,0,0,0,0,0,0,0.0062,0.006,0.0056,0.0062,0.0061,0.0071,0.0071,0.0075,0.0092,0.0119,0.0129,0.01,0.0166,0.0175,0.0182,0.0212,0.0219,0.0222,0.0286,0.0286,0.0286,0.0255,0,0,0,0,0,0,0.0063,0.0061,0.0052,0.0061,0.006,0.0061,0.007,0.0075,0.0081,0.0085,0.0133,0.0142,0.0167,0.0177,0.0185,0.0216,0.0224,0.0286,0.0286,0.0286,0.0256,0.0254,0.0252,0,0,0,0,0,0.0064,0.0057,0.0052,0.0049,0.0049,0.0061,0.0063,0.0076,0.0081,0.0094,0.0098,0.0141,0.0184,0.0177,0.0188,0.0221,0.0286,0.0286,0.0286,0.0257,0.0254,0.0252,0,0,0,0,0,0,0.0072,0.006,0.0055,0.0046,0.0053,0.0066,0.0063,0.0076,0.0091,0.0094,0.0123,0.0131,0.0154,0.0182,0.0174,0.024,0.025,0.0252,0.0225,0.0223,0.0221,0.0215,0.0227,0,0,0,0,0,0.0063,0.0055,0.0052,0.0047,0.0041,0.0052,0.0054,0.0072,0.0081,0.009,0.0113,0.0139,0.0161,0.0183,0.0206,0.0233,0.0273,0.0267,0.0265,0.0263,0.0264,0.034,0.0345,0.0286,0.0286,0.0286,0,0,0.0057,0.0056,0.0045,0.0047,0.0046,0.0035,0.0058,0.0068,0.007,0.0097,0.0101,0.0128,0.0162,0.0188,0.0205,0.0217,0.0296,0.0263,0.0261,0.0264,0.034,0.0346,0.0352,0.0286,0.0286,0.0286,0,0,0.004,0.0043,0.002,0.0025,0.0025,0.0035,0.0036,0.005,0.0066,0.0067,0.009,0.0121,0.0151,0.0187,0.0206,0.0207,0.0275,0.0232,0.0231,0.0303,0.0309,0.0315,0.0357,0.0367,0.0242,0.0242,0.0242,0,0.002,0.0006,0.0019,0.0003,-0.0008,0.0029,0.0005,0.0029,0.0048,0.0047,0.0065,0.0115,0.0151,0.0189,0.0194,0.0207,0.0249,0.0236,0.0302,0.0309,0.0315,0.0357,0.0368,0.024,0.024,0.024,0.0241,0,-0.0007,-0.0027,-0.0036,-0.0053,-0.0053,-0.0055,-0.0039,-0.0026,-0.0009,0.0007,0.0044,0.0098,0.0137,0.0163,0.0178,0.0249,0.0262,0.0283,0.0309,0.032,0.0362,0.0375,0.0238,0.0238,0.0239,0.0239,0,0,-0.0041,-0.0063,-0.0068,-0.0094,-0.0082,-0.0087,-0.0087,-0.0087,-0.0097,-0.0034,-0.0042,0.0041,0.0097,0.0124,0.0183,0.025,0.033,0.029,0.0294,0.0332,0.0479,0.0321,0.0319,0.0373,0.0375,0.0377,0.0485,0,-0.008,-0.0128,-0.0123,-0.0169,-0.0197,-0.0174,-0.0185,-0.0168,-0.0145,-0.0137,-0.0043,-0.0006,0.008,0.0119,0.0202,0.03,0.0364,0.0297,0.0462,0.0467,0.0327,0.0328,0.0384,0.0494,0.0497,0.0499,0.0501,0,-0.0119,-0.0139,-0.0201,-0.0243,-0.0258,-0.0276,-0.0294,-0.0292,-0.026,-0.0238,-0.0157,-0.008,0.0054,0.0107,0.0327,0.0288,0.038,0.0452,0.0459,0.0331,0.0331,0.0487,0.0523,0.0522,0.052,0.0518,0.0517,0,-0.0148,-0.0202,-0.0256,-0.0266,-0.0298,-0.0328,-0.0339,-0.0328,-0.0339,-0.0276,-0.0269,-0.0102,-0.0021,0.0158,0.0343,0.0354,0.0536,0.0572,0.0511,0.0501,0.0629,0.0622,0.0696,0.0695,0.0695,0.0695,0.0695,0,-0.0188,-0.0233,-0.0279,-0.03,-0.0369,-0.0371,-0.0426,-0.0418,-0.0413,-0.0426,-0.0295,-0.0263,-0.0001,0.0137,0.0315,0.0443,0.054,0.0501,0.0517,0.0609,0.0599,0.0636,0.0628,0.0699,0.0698,0.0697,0.0696,0,-0.0222,-0.0251,-0.0313,-0.0361,-0.0388,-0.0431,-0.0491,-0.0512,-0.0495,-0.0505,-0.0471,-0.036,-0.0203,0.0015,0.0263,0.0371,0.0531,0.054,0.0595,0.0614,0.0457,0.0446,0.0501,0.0497,0.0493,0.0489,0.0487,0,-0.0249,-0.0283,-0.0358,-0.0397,-0.0428,-0.049,-0.0527,-0.0545,-0.0543,-0.0562,-0.0547,-0.0466,-0.0368,-0.0114,0.0083,0.0358,0.038,0.0489,0.0498,0.0426,0.0438,0.0433,0.0427,0.048,0.0479,0.0478,0.0477,0,-0.0288,-0.0316,-0.0354,-0.0428,-0.0486,-0.0554,-0.059,-0.0596,-0.0599,-0.0616,-0.0584,-0.0498,-0.0409,-0.0194,-0.0023,0.0187,0.0452,0.0449,0.0459,0.0469,0.0402,0.0416,0.0415,0.0463,0.0465,0.0467,0.0467,0,-0.0308,-0.0346,-0.0391,-0.0449,-0.0526,-0.0571,-0.0598,-0.0592,-0.0608,-0.0592,-0.0605,-0.052,-0.0464,-0.0294,-0.0112,0.0041,0.0083,0.0207,0.0232,0.0249,0.012,-0.0005,-0.0062,0,0,0,0,0,-0.0326,-0.0356,-0.0411,-0.0464,-0.0531,-0.0571,-0.0616,-0.0617,-0.0622,-0.0595,-0.0593,-0.051,-0.0375,-0.0322,-0.0196,-0.02,0.0109,-0.005,0.0267,0.0387,0.0403,0.0277,0,0,0,0,0,0,-0.0341,-0.039,-0.0403,-0.0453,-0.0483,-0.0554,-0.0578,-0.0584,-0.0538,-0.0546,-0.0459,-0.0472,-0.0317,-0.0438,-0.0191,-0.0163,0.0058,0.0003,0.0005,0.0378,0.0392,0.0405,0.0281,0,0,0,0,0]}]]